Regional Weather Roundup
Issued by NWS Upton, NY

Current Version | Previous Version | Text Only | Print | Product List | Glossary Off
Versions: 1 2 3 4 5 6 7 8 9 10 11 12 13 14 15 16 17 18 19 20 21 22 23 24 25 26 27 28 29 30 31 32 33 34 35 36 37 38 39 40 41 42 43 44 45 46 47 48 49
000 ASUS41 KOKX 311005 RWROKX REGIONAL WEATHER ROUNDUP NATIONAL WEATHER SERVICE NEW YORK NY 500 AM EST SAT JAN 31 2015 NOTE: "FAIR" INDICATES FEW OR NO CLOUDS BELOW 12,000 FEET WITH NO SIGNIFICANT WEATHER AND/OR OBSTRUCTIONS TO VISIBILITY. NYZ071-072-176-178-NJZ106-104-311100- NEW YORK CITY METRO AREA CITY SKY/WX TMP DP RH WIND PRES REMARKS CENTRAL PARK CLEAR 15 -3 44 NW18G32 30.11R WCI -2 LAGUARDIA APRT PTCLDY 16 3 56 NW18G35 30.07R WCI 0 KENNEDY INTL PTCLDY 16 -1 47 NW30G37 30.08R WCI -4 NEWARK/LIBERTY CLEAR 14 -1 51 NW16G28 30.10R WCI -2 BRNX BOT. GARD N/A N/A N/A N/A NW13 30.08R TETERBORO CLEAR 14 -3 47 N13G31 30.09R WCI 0 $$ NYZ177-179-078>081-311100- LONG ISLAND NEW YORK CITY SKY/WX TMP DP RH WIND PRES REMARKS FARMINGDALE CLEAR 15 -4 42 NW20G35 30.02R WCI -2 ISLIP CLEAR 15 -3 44 NW28G37 29.97R WCI -5 SHIRLEY CLEAR 15 -2 46 NW26G37 29.98R WCI -4 WESTHAMPTON CLEAR 14 -1 51 NW23G38 29.95R WCI -5 MONTAUK POINT N/A 15 4 61 NW18G33 29.88S WCI -2 $$ NYZ052-065-067-311100- HUDSON VALLEY CITY SKY/WX TMP DP RH WIND PRES REMARKS WHITE PLAINS FAIR 11 -6 46 NW25G37 29.99S WCI -10 NEWBURGH NOT AVBL MONTGOMERY CLEAR 9 -8 46 VRB7G20 30.09S WCI -2 POUGHKEEPSIE CLEAR 12 -10 36 NW14 30.09R WCI -3 ALBANY PTCLDY 2 -10 57 W18 30.14R WCI -19 $$ NJZ001-105-106-008-010-013-015-019>022-104-311100- NEW JERSEY CITY SKY/WX TMP DP RH WIND PRES REMARKS NEWARK/LIBERTY CLEAR 14 -1 51 NW16G28 30.10R WCI -2 TETERBORO CLEAR 14 -3 47 N13G31 30.09R WCI 0 CALDWELL CLEAR 13 -4 46 NW9G21 30.11R WCI 1 MORRISTOWN CLEAR 16 0 48 NW13G24 30.11R WCI 2 SOMERVILLE CLEAR 14 -2 49 NW16G25 30.11S WCI -2 SUSSEX CLEAR 11 -4 51 N9G20 30.10R WCI -2 ANDOVER N/A 10 -2 58 N8G22 30.09R WCI -2 TRENTON CLEAR 13 -3 49 NW14G24 30.14R WCI -2 MILLVILLE CLEAR 16 -1 47 NW18G28 30.19R WCI 0 ATLANTIC CITY CLEAR 15 0 51 NW23G32 30.14R WCI -3 WRIGHTSTOWN CLEAR 14 -1 51 NW17G29 30.12R WCI -3 TOMS RIVER CLEAR 14 0 52 NW17G29 30.12R WCI -3 BELMAR CLEAR 14 -4 44 NW18 30.09R WCI -3 $$ PAZ047>061-062-071-311100- EASTERN PENNSYLVANIA CITY SKY/WX TMP DP RH WIND PRES REMARKS PHILADELPHIA CLEAR 15 -3 44 NW18G28 30.21S WCI -2 ALLENTOWN CLEAR 11 -4 51 NW14G24 30.17S WCI -5 SCRANTON CLOUDY 8 -3 61 N10G21 30.18R WCI -6 $$ CTZ002-004>006-009-010-012-RIZ004-006-007-MAZ004-011-015-311100- SOUTHERN NEW ENGLAND IN CT CITY SKY/WX TMP DP RH WIND PRES REMARKS BRADLEY INTL CLEAR 8 -6 52 NW18G26 29.96R WCI -11 HARTFORD CLEAR 8 -5 55 NW10 29.99R WCI -6 DANBURY CLEAR 9 -8 46 NW7G20 30.02R WCI -2 WTRBRY/OXFORD CLEAR 7 -11 43 NW20G39 29.92S WCI -13 BRIDGEPORT CLEAR 12 -4 48 NW22G40 29.98R WCI -7 MERIDEN CLEAR 8 -7 50 NW16 29.98R WCI -10 NEW HAVEN CLEAR 11 -5 48 NW22G37 29.95S WCI -8 CHESTER FAIR 9 -4 56 NW25G36 29.89R WCI -13 GROTON CLEAR 10 -2 58 NW21G40 29.86R WCI -9 WILLIMANTIC CLEAR 9 -4 55 VRB7 29.90R WCI -2 IN RI CITY SKY/WX TMP DP RH WIND PRES REMARKS PROVIDENCE CLOUDY 15 1 53 NW18G35 29.80R WCI -2 BLOCK ISLAND MOCLDY 14 1 57 NW21G32 29.79S WCI -4 WESTERLY CLEAR 11 -2 56 NW20G33 29.82R WCI -7 IN MA CITY SKY/WX TMP DP RH WIND PRES REMARKS BOSTON LGT SNOW 13 6 74 NW18G35 29.76R VSB 1 WCI -4 WORCESTER MIX PCPN N/A N/A N/A NW32G45 29.74R WESTFIELD CLEAR 6 -6 57 N28G37 29.95R WCI -17 PROVINCETOWN CLOUDY 19 16 86 NW29G39 29.68S VSB 3/4 WCI 1 NANTUCKET LGT SNOW 19 11 70 NW26G37 29.67S WCI 1 $$ ANZ330-335-338-340-345-350-353-355-311100- COASTAL MARINE OBSERVATIONS STATION/POSITION TIME SKY/WX TEMP WIND PRES VSBY WAVE AIR SEA DIR/SP/G HT/PER (UTC) (F) (DEG/KT/KT) (MB) (MI) (FT/S) NY HARB ENTRANCE 1000 21 40 310/ 33/ 41 1016.4 7/ 6 4S FIRE IS 1000 38 N/A 6/ 5 20S FIRE ISLAND 0900 41 1014.8 10/ 7 23SW MTP 1000 N/A 10/ 6 HUDSON CANYON NOT AVBL EXECUTION ROCKS 1000 17 33 290/ 23/ 33 N/A WESTERN LI SOUND 1000 17 300/ 21/ 33 N/A 3/ 3 CENTRAL LI SOUND 1000 14 34 310/ 27/ 35 N/A 4/ 5 EASTERN LI SOUND NOT AVBL ROBBINS REEF 1000 16 330/ 22/ 29 1017.6 $$ >>>>>>>>>>>>>>>>>>>>>>>>>>>> KEY <<<<<<<<<<<<<<<<<<<<<<<<<<< > < > SKY/WX - SKY CONDITION/PRESENT WEATHER < > TMP - TEMPERATURE IN FAHRENHEIT < > DP - DEWPOINT IN FAHRENHEIT < > RH - RELATIVE HUMIDITY IN PERCENT < > WIND - DIRECTION AND SPEED IN MPH < > PRES - MEAN SEA LEVEL PRESSURE IN INCHES OF HG < > WCI - WIND CHILL INDEX < > VSB - VISIBILITY IN MILES < > HX - HEAT INDEX < > TC - TEMPERATURE IN CELSIUS < > VRB - VARIABLE WIND DIRECTION < > < >>>>>>>>>>>>>>>>>>>>>>>>>>>> KEY <<<<<<<<<<<<<<<<<<<<<<<<<<<

USA.gov is the U.S. government's official web portal to all federal, state and local government web resources and services.